Stations météo

réclame
Mon MeteoGroup
Cap Bear, France (7749): Température de l'air & dewpoint: 08.08.2018 17:00:00 - 14.08.2018 17:00:00 (CEST)Cap Bear, France (7749): Vitesse du vent & gusts: 08.08.2018 17:00:00 - 14.08.2018 17:00:00 (CEST)Cap Bear, France (7749): Direction du vent: 08.08.2018 17:00:00 - 14.08.2018 17:00:00 (CEST)Cap Bear, France (7749): reduced air pressure: 08.08.2018 17:00:00 - 14.08.2018 17:00:00 (CEST)Cap Bear, France (7749): visibility: 08.08.2018 17:00:00 - 14.08.2018 17:00:00 (CEST)Cap Bear, France (7749): Quantités de précipitations: 08.08.2018 17:00:00 - 14.08.2018 17:00:00 (CEST)
Date & Time tt [°C] td [°C] ff [km/h] ff [knt] fx [km/h] fx [knt] dd ppp [hPa] vv [km] rr [mm]
14.08.2018 17:00:00 25,4 13,6 83 45 103 56 NNW 1014,0 - 0,0
14.08.2018 16:00:00 25,2 13,1 82 44 105 57 NNW 1014,2 - 0,0
14.08.2018 15:00:00 24,8 15,1 72 39 99 54 NNW 1015,2 - 0,0
14.08.2018 14:00:00 24,9 14,7 65 35 88 47 NNW 1015,3 30 0,0
14.08.2018 13:00:00 24,4 15,1 53 29 75 40 NNW 1016,6 - 0,0
14.08.2018 12:00:00 24,1 14,5 59 32 74 40 NW 1017,2 - 0,0
14.08.2018 11:00:00 23,1 14,9 56 30 67 36 NNW 1017,3 30 0,0
14.08.2018 10:00:00 21,6 15,2 50 27 68 37 NW 1017,3 - 0,0
14.08.2018 09:00:00 21,0 15,5 51 28 63 34 NW 1017,3 - 0,0
14.08.2018 08:00:00 20,9 16,3 45 25 59 32 NNW 1016,7 20 0,0
14.08.2018 07:00:00 20,8 16,2 46 25 55 30 NNW 1016,1 - 0,0
14.08.2018 06:00:00 20,9 16,5 45 25 53 28 NNW 1015,6 - 0,0
14.08.2018 05:00:00 21,4 16,4 46 25 64 35 NW 1015,2 20 0,0
14.08.2018 04:00:00 21,7 15,8 44 24 67 36 NW 1015,2 - 0,0
14.08.2018 03:00:00 21,8 16,3 46 25 70 38 NW 1015,1 - 0,0
14.08.2018 02:00:00 22,2 16,9 38 21 61 33 NW 1015,2 20 0,0
14.08.2018 01:00:00 22,1 17,2 36 19 63 34 NW 1015,5 - 0,0
14.08.2018 00:00:00 23,0 17,0 39 21 71 38 NW 1014,9 - 0,0
13.08.2018 23:00:00 23,5 17,5 37 20 58 32 WNW 1014,7 - 0,0
13.08.2018 22:00:00 24,2 18,6 37 20 46 25 NW 1014,3 - 0,0
13.08.2018 21:00:00 24,7 20,0 43 23 62 34 N 1012,8 - 0,0
13.08.2018 20:00:00 24,4 18,6 9 5 22 12 SSW 1012,6 20 0,0
13.08.2018 19:00:00 23,9 19,4 12 6 19 10 SSE 1012,1 - 0,0
13.08.2018 18:00:00 23,9 20,0 16 9 21 12 S 1012,5 - 0,0
13.08.2018 17:00:00 23,9 19,8 16 9 18 10 SSE 1012,9 20 0,0
13.08.2018 16:00:00 24,6 20,1 14 8 16 9 SSE 1013,2 - 0,0
13.08.2018 15:00:00 24,2 19,7 8 4 13 7 SSE 1013,9 - 0,0
13.08.2018 14:00:00 24,1 19,8 8 4 18 10 SE 1014,1 20 0,0
13.08.2018 13:00:00 24,3 19,4 14 8 23 13 ENE 1014,5 - 0,0
13.08.2018 12:00:00 27,3 19,6 17 9 23 12 NE 1014,4 - 0,0
13.08.2018 11:00:00 25,8 20,4 20 11 28 15 N 1014,2 20 0,0
13.08.2018 10:00:00 24,8 19,0 24 13 34 18 NW 1014,0 - 0,0
13.08.2018 09:00:00 23,0 18,3 27 14 35 19 NW 1013,3 - 0,0
13.08.2018 08:00:00 22,7 17,8 20 11 38 20 NW 1012,8 20 0,0
13.08.2018 07:00:00 22,6 17,1 29 15 42 23 WNW 1012,2 - 0,0
13.08.2018 06:00:00 22,6 17,5 24 13 46 25 NW 1012,6 - 0,0
13.08.2018 05:00:00 21,5 19,4 30 16 39 21 WNW 1013,2 20 0,0
13.08.2018 04:00:00 22,2 19,9 15 8 25 13 NW 1014,0 - 0,0
13.08.2018 03:00:00 22,5 19,9 11 6 21 12 N 1013,9 - 0,0
13.08.2018 02:00:00 22,3 19,7 12 7 35 19 SSE 1013,8 - 0,0
13.08.2018 01:00:00 22,5 20,0 25 13 34 19 SE 1012,9 - 0,0
13.08.2018 00:00:00 24,4 20,3 19 11 33 18 N 1013,0 - 0,0
12.08.2018 23:00:00 23,6 22,2 18 10 43 23 N 1012,6 - 0,0
12.08.2018 22:00:00 23,7 22,1 5 3 16 9 N 1013,7 - 0,0
12.08.2018 21:00:00 24,2 22,1 8 4 29 16 WNW 1012,7 - 0,0
12.08.2018 20:00:00 23,9 22,0 9 5 16 9 NW 1012,8 20 0,0
12.08.2018 19:00:00 23,8 21,7 11 6 24 13 NNW 1012,4 - 0,0
12.08.2018 18:00:00 24,1 21,8 22 12 26 14 NNW 1013,1 - 0,0
12.08.2018 17:00:00 25,4 22,5 7 4 19 10 ESE 1014,0 20 0,0
12.08.2018 16:00:00 26,4 20,9 11 6 19 11 SE 1014,7 - 0,0
12.08.2018 15:00:00 25,4 20,6 6 4 16 9 ESE 1015,3 - 0,0
12.08.2018 14:00:00 27,5 20,1 10 5 16 9 NE 1015,9 - 0,0
12.08.2018 13:00:00 26,7 20,1 15 8 21 11 NNE 1016,5 - 0,0
12.08.2018 12:00:00 24,5 20,8 19 10 27 14 N 1016,8 - 0,0
12.08.2018 11:00:00 24,1 18,5 25 13 29 16 NNW 1016,8 20 0,0
12.08.2018 10:00:00 24,1 19,8 27 15 33 18 NNW 1016,7 - 0,0
12.08.2018 09:00:00 23,3 19,7 29 16 40 22 NW 1016,5 - 0,0
12.08.2018 08:00:00 22,3 20,0 26 14 36 19 NW 1016,6 - 0,0
12.08.2018 07:00:00 21,5 19,2 28 15 34 18 NW 1016,5 - 0,0
12.08.2018 06:00:00 21,6 19,7 25 13 34 18 NW 1016,6 - 0,0
12.08.2018 05:00:00 22,3 17,9 25 14 31 17 NW 1016,6 20 0,0
12.08.2018 04:00:00 23,4 17,4 7 4 13 7 NNE 1017,0 - 0,0
12.08.2018 03:00:00 23,6 17,8 6 3 10 5 ENE 1017,2 - 0,0
12.08.2018 02:00:00 24,5 17,2 9 5 13 7 ESE 1017,5 - 0,0
12.08.2018 01:00:00 24,5 17,5 6 3 16 9 N 1017,9 - 0,0
12.08.2018 00:00:00 25,0 18,2 12 7 19 10 N 1018,3 - 0,0
11.08.2018 23:00:00 27,0 15,4 16 9 26 14 SW 1018,1 - 0,0
11.08.2018 22:00:00 26,8 15,5 21 11 48 26 SW 1017,9 - 0,0
11.08.2018 21:00:00 26,9 15,6 31 17 44 24 SSW 1017,6 - 0,0
11.08.2018 20:00:00 26,9 15,3 32 17 48 26 SSW 1017,8 - 0,0
11.08.2018 19:00:00 24,5 18,4 29 16 40 22 SSE 1018,4 - 0,0
11.08.2018 18:00:00 24,4 18,1 32 17 36 19 SSE 1019,0 - 0,0
11.08.2018 17:00:00 25,1 16,5 21 12 25 14 SSE 1019,6 25 0,0
11.08.2018 16:00:00 25,3 16,2 16 9 19 10 SSE 1020,4 - 0,0
11.08.2018 15:00:00 25,1 15,7 11 6 19 11 SSE 1021,3 - 0,0
11.08.2018 14:00:00 26,6 16,2 7 4 16 9 SE 1021,8 - 0,0
11.08.2018 13:00:00 26,2 16,2 10 5 22 12 SE 1022,3 - 0,0
11.08.2018 12:00:00 27,1 17,0 16 9 20 11 NE 1022,7 - 0,0
11.08.2018 11:00:00 24,8 16,2 16 9 29 16 NNW 1023,0 - 0,0
11.08.2018 10:00:00 24,1 13,3 22 12 37 20 NW 1023,1 - 0,0
11.08.2018 09:00:00 23,2 13,4 29 16 40 22 NW 1022,9 - 0,0
11.08.2018 08:00:00 22,4 15,7 26 14 39 21 NW 1022,5 30 0,0
11.08.2018 07:00:00 21,7 13,6 29 16 44 24 NW 1022,3 - 0,0
11.08.2018 06:00:00 21,7 14,3 28 15 40 21 NW 1022,3 - 0,0
11.08.2018 05:00:00 22,2 13,8 27 14 40 22 NW 1022,3 - 0,0
11.08.2018 04:00:00 22,8 13,8 26 14 40 22 NW 1022,6 - 0,0
11.08.2018 03:00:00 23,0 13,7 25 14 38 20 NW 1022,9 - 0,0
11.08.2018 02:00:00 23,4 13,6 18 10 31 17 NW 1023,3 - 0,0
11.08.2018 01:00:00 23,9 13,4 21 12 36 19 WNW 1023,3 - 0,0
11.08.2018 00:00:00 24,2 14,0 25 14 38 20 WNW 1023,1 - 0,0
10.08.2018 23:00:00 24,0 14,7 24 13 39 21 WNW 1023,0 - 0,0
10.08.2018 22:00:00 24,2 15,4 25 14 38 21 WNW 1022,5 - 0,0
10.08.2018 21:00:00 24,7 15,3 9 5 18 10 WNW 1022,0 - 0,0
10.08.2018 20:00:00 23,6 16,1 15 8 19 11 SSE 1021,8 40 0,0
10.08.2018 19:00:00 23,6 16,9 18 10 26 14 SSE 1021,9 - 0,0
10.08.2018 18:00:00 24,4 17,1 19 10 21 12 SSE 1022,0 - 0,0
10.08.2018 17:00:00 25,3 17,5 14 8 18 10 SSE 1022,3 40 0,0
10.08.2018 16:00:00 25,7 16,5 11 6 16 9 SE 1022,8 - 0,0
10.08.2018 15:00:00 26,6 16,8 12 6 24 13 ENE 1023,2 - 0,0
10.08.2018 14:00:00 27,3 17,5 19 11 29 16 NE 1023,2 - 0,0
10.08.2018 13:00:00 25,2 16,9 24 13 29 16 NNE 1023,3 - 0,0
10.08.2018 12:00:00 24,6 16,3 23 12 34 18 NNE 1023,6 - 0,0
10.08.2018 11:00:00 23,2 15,5 32 17 42 23 NNW 1023,4 40 0,0
10.08.2018 10:00:00 22,1 15,4 37 20 48 26 NNW 1023,0 - 0,0
10.08.2018 09:00:00 21,1 14,7 37 20 51 27 NW 1022,9 - 0,0
10.08.2018 08:00:00 20,8 14,2 37 20 54 29 NW 1022,5 - 0,0
10.08.2018 07:00:00 20,3 14,2 34 18 59 32 NW 1022,2 20 0,0
10.08.2018 06:00:00 20,1 13,8 37 20 57 31 NW 1021,9 - 0,0
10.08.2018 05:00:00 20,3 13,7 38 20 61 33 WNW 1022,3 20 0,0
10.08.2018 04:00:00 19,9 14,0 39 21 67 36 NW 1021,9 - 0,2
10.08.2018 03:00:00 21,0 13,4 42 23 65 35 NW 1022,0 - 0,0
10.08.2018 02:00:00 20,5 13,7 46 25 72 39 NW 1021,5 - 0,0
10.08.2018 01:00:00 20,9 13,3 42 23 68 37 NW 1021,1 - 0,0
10.08.2018 00:00:00 20,7 13,9 38 20 58 31 NW 1021,3 - 0,0
09.08.2018 23:00:00 20,4 14,1 40 22 63 34 NW 1020,8 - 0,0
09.08.2018 22:00:00 20,6 14,9 35 19 59 32 NW 1020,6 - 0,0
09.08.2018 21:00:00 20,5 15,3 37 20 58 31 NW 1019,7 - 0,0
09.08.2018 20:00:00 20,5 15,5 41 22 64 35 NW 1019,2 - 0,0
09.08.2018 19:00:00 20,2 16,4 41 22 62 33 NW 1018,8 - 0,2
09.08.2018 18:00:00 19,2 16,4 39 21 56 30 WNW 1019,0 - 2,4
09.08.2018 17:00:00 18,8 16,9 39 21 69 38 NW 1018,6 10 3,2
09.08.2018 16:00:00 18,7 17,4 45 24 74 40 NW 1017,5 - 4,7
09.08.2018 15:00:00 23,2 16,0 44 24 64 35 NW 1016,4 - 0,0
09.08.2018 14:00:00 25,6 18,8 38 20 46 25 NW 1014,8 - 0,0
09.08.2018 13:00:00 25,6 18,8 27 15 35 19 NNW 1014,7 - 0,0
09.08.2018 12:00:00 25,1 19,9 26 14 39 21 NNW 1014,7 - 0,0
09.08.2018 11:00:00 27,2 20,8 40 21 48 26 N 1013,5 20 0,0
09.08.2018 10:00:00 29,3 21,0 30 16 54 29 SSW 1011,9 - 0,0
09.08.2018 09:00:00 26,8 21,6 28 15 60 33 S 1011,7 - 0,0
09.08.2018 08:00:00 25,6 22,3 50 27 60 33 S 1011,1 18 0,0
09.08.2018 07:00:00 25,1 21,6 45 25 54 29 S 1010,8 - 0,0
09.08.2018 06:00:00 25,5 21,4 29 16 54 29 SSE 1011,2 - 0,0
09.08.2018 05:00:00 26,3 20,6 40 22 64 35 S 1011,0 - 0,0
09.08.2018 04:00:00 26,1 21,1 42 23 73 40 SSW 1010,6 - 0,0
09.08.2018 03:00:00 26,3 20,6 56 30 78 42 SSW 1009,7 - 0,0
09.08.2018 02:00:00 26,6 20,7 42 23 71 38 SSW 1010,0 - 0,0
09.08.2018 01:00:00 26,3 20,6 46 25 76 41 S 1011,0 - 0,0
09.08.2018 00:00:00 26,8 19,2 40 21 61 33 S 1011,1 - 0,0
08.08.2018 23:00:00 26,7 21,5 33 18 51 28 SSW 1011,9 - 0,0
08.08.2018 22:00:00 26,9 21,9 32 17 56 30 S 1011,6 - 0,0
08.08.2018 21:00:00 26,9 21,4 41 22 55 30 S 1010,8 - 0,0
08.08.2018 20:00:00 26,6 21,8 42 23 54 29 SSE 1010,4 20 0,0
08.08.2018 19:00:00 27,2 21,7 37 20 66 35 S 1011,4 - 0,0
08.08.2018 18:00:00 27,6 22,1 44 24 61 33 S 1011,4 - 0,0
08.08.2018 17:00:00 27,9 22,2 44 24 66 36 S 1011,7 20 0,0

tt = Température de l'air
td = dewpoint
ff = Vitesse du vent
fx = gusts
dd = Direction du vent
ppp = reduced air pressure
vv = visibility
rr = Quantités de précipitations

stations d'obs. à proximité